Find Starlink 2314

NORAD ID: 47788 Int'l Des: 2021-018 Owner: SPXS Country: US Constellation: starlink operational
LEOCIRCULAR

リアルタイム位置

3D地球を読み込み中...

Starlink 2314について

説明を読み込み中...

次回通過

Passes for default location (London). Set your location on the main map for personalized predictions.

高度履歴

Loading altitude history...

軌道要素

1 47788U 21018B 26121.95362502 .00041608 00000-0 11998-2 0 9999
2 47788 53.1602 331.3994 0002128 165.5820 194.5244 15.35328501285237
Epoch: May 1, 2026 • Age: 14 hours

現在のステータス

高度 474.2 km
速度 7.63 km/s
衛星直下点 -40.34°S, 121.72°W
打ち上げ日 Mar 11, 2021
運用期間 5.1 years
タイプ internet

技術仕様

分類 Payload
質量 260.00 kg
乾燥質量 248.00 kg
総質量 260.00 kg
長さ 0.20 m
直径 2.80 m
スパン 9.00 m
形状 Box + pan
製造者 SPXS
バスタイプ Starlink
フェーズステータス In Orbit
所有者/国 SPXS/US

Most Searched